Weather in Ermoupoli

Greece     37°26′35″N   24°56′15″E
temp.,
°C
wind,
m/s
gust,
m/s
humid.,
%
clouds,
%
prec.,
mm/h
press.,
hPa
HPBL,
m
11 may, tue
tue1100:00+18nnw510530 0.0 1015583
03:00+17nnw611555 0.0 1014701
06:00+17nnw710555 0.0 1014682
09:00+17nnw610545 0.0 1014687
12:00+18nnw59530 0.0 1014696
15:00+18n47520 0.0 1014651
18:00+18n46510 0.0 1013485
21:00+17n355896 0.0 1012240
12 may, wed
wed1200:00+17nw22592 0.0 1012132
03:00+17nnw11560 0.0 1011126
06:00+17nne11590 0.0 1010125
09:00+17nne11580 0.0 1011148
12:00+18sw21555 0.0 1011233
15:00+19sw22515 0.0 1010235
18:00+20sw345969 0.0 1009216
21:00+19s68760 0.0 1008211
13 may, thu
thu1300:00+19s68832 0.0 1008231
03:00+19sw34860 0.0 100679
06:00+18wsw33825 0.0 100770
09:00+19sw22815 0.0 100890
12:00+19sw44785 0.0 1009234
15:00+19wsw45785 0.0 1009286
18:00+19s45772 0.0 1009256
21:00+19s56840 0.0 1009215
14 may, fri
fri1400:00+18s44850 0.0 100995
03:00+19sw34830 0.0 100970
06:00+18wsw58810 0.0 1010230
09:00+19w57800 0.0 1012272
12:00+19wsw45770 0.0 1014193
15:00+19sw44720 0.0 1014146
18:00+20ssw44710 0.0 1013139
21:00+20ssw22730 0.0 101423
15 may, sat
sat1500:00+19s22740 0.0 101413
03:00+19ssw11720 0.0 101411
06:00+19sw11704 0.0 101411
09:00+20ssw126829 0.0 101423
12:00+20sw34625 0.0 101578
15:00+21sw33625 0.0 101477
18:00+21s33590 0.0 101258
21:00+20s5673100 0.0 101183